Back to catalog

STARLINK-32632

AliveCommunicationsVLEO
NORAD 62262·PAYLOAD·🇺🇸 United States

Launched Dec 5, 2024 from Vandenberg Space Force Base

Loading…

Next Passes (next 24 hours)

TLE

FreshSource: CelesTrak SupGP

Epoch: Sep 14, 2026, 21:03 UTC

1 62262C 24231V   26257.87756944  .00048488  00000+0  15594-2 0  2576
2 62262  53.1598  59.9089 0001115  71.2301  65.9996 15.31675609    11

Track STARLINK-32632 in real time with AllMySat

Download on the App Store